Location: Unspecified
(0.0000°N, 0.0000°E)
Time: 11:38:25
(UTC+00:00)

Cosmos 381 - Visible Passes

Search period start: 26 September 2022 00:00
Search period end: 06 October 2022 00:00
Orbit: 960 x 1004 km, 74.0° (Epoch: 25 September)

Date Brightness Start Highest point End Pass type
(mag) Time Alt. Az. Time Alt. Az. Time Alt. Az.
26 Sep 7.9 19:29:12 10° NW 19:34:34 29° WSW 19:40:01 10° SSW visible
27 Sep 6.1 18:09:26 10° N 18:15:39 58° ENE 18:21:56 10° SSE visible
27 Sep 9.1 20:00:37 10° W 20:02:08 11° WSW 20:03:39 10° WSW visible
28 Sep 6.7 18:36:55 10° NNW 18:43:08 60° WSW 18:49:28 10° S visible
29 Sep 8.3 19:05:40 10° NW 19:10:40 24° WSW 19:15:44 10° SSW visible
30 Sep 9.3 04:43:02 10° ESE 04:44:56 11° ESE 04:46:50 10° E visible
01 Oct 8.2 05:07:04 10° SSE 05:12:30 30° ESE 05:17:52 10° NE visible
01 Oct 7.2 18:13:07 10° NNW 18:19:14 50° WSW 18:25:26 10° S visible
02 Oct 8.8 18:42:14 10° WNW 18:46:46 20° WSW 18:51:21 10° SSW visible
03 Oct 9.0 04:17:52 10° SE 04:21:02 14° ESE 04:24:10 10° ENE visible
04 Oct 7.6 04:42:52 10° SSE 04:48:35 36° ESE 04:54:13 10° NE visible
05 Oct 6.1 05:09:46 10° SSW 05:16:05 89° E 05:22:19 10° NNE visible
05 Oct 9.1 18:18:57 10° WNW 18:22:53 17° WSW 18:26:49 10° SW visible
